Skip to main content

CRUISE INFORMATION RECORD AND DATA
 
NODC Cruise 41-646 Information
WOD CRUISE REFERENCE # 41000646
DATA:
in WOD format 41000646_XBT.dat
41000646_CTD.dat
in 'csv' format 41000646_XBT.csv
41000646_CTD.csv
METADATA:
COUNTRY INDIA (41)
NODC ACCESSION NUMBER (XBT) 33381
SHIP NAME SAGAR KANYA (VTJR)
INSTITUTE NATIONAL INST OF OCEANOGRAPHY (GOA; INDIA)
PRIMARY INVESTIGATORS  
All Parameters PANKAJAKSHAN; DR. THADATHIL
DATE OF FIRST CAST 12/13/1996
DATE OF LAST CAST 12/18/1996
TOTAL NUMBER OF CASTS 23
Temperature [t] PROFILES 23
Salinity [s] PROFILES 12
UNIQUE CAST # LATITUDE LONGITUDE DATE TIME PROBE TYPE
11177791 14.500 71.100 12/13/1996 15.333 XBT
11158550 14.500 71.100 12/13/1996 15.333 CTD
11177792 14.466 71.016 12/13/1996 17.750 XBT
11158551 14.466 71.016 12/13/1996 17.750 CTD
11158552 12.500 71.000 12/14/1996 7.000 CTD
11177793 11.698 70.967 12/14/1996 16.250 XBT
11158553 11.698 70.967 12/14/1996 16.250 CTD
11177794 11.698 70.967 12/14/1996 17.583 XBT
11158554 11.698 70.967 12/14/1996 17.583 CTD
11158555 9.830 71.000 12/15/1996 7.000 CTD
11177795 9.150 71.016 12/15/1996 13.250 XBT
11158556 9.150 71.016 12/15/1996 13.250 CTD
11177796 9.210 71.066 12/15/1996 16.833 XBT
11158557 9.210 71.066 12/15/1996 16.833 CTD
11177797 7.333 71.000 12/16/1996 7.000 XBT
11158558 7.333 71.000 12/16/1996 7.000 CTD
11177798 7.866 71.766 12/16/1996 13.500 XBT
11158559 7.866 71.766 12/16/1996 13.500 CTD
11177799 7.685 71.810 12/16/1996 16.000 XBT
11158560 7.685 71.810 12/16/1996 16.000 CTD
11177800 8.555 74.000 12/17/1996 7.333 XBT
11158561 8.555 74.000 12/17/1996 7.333 CTD
11177801 13.030 73.800 12/18/1996 10.750 XBT